Location: ČR
(50.0000°N, 15.0000°E)
Time: 14:33:44
(UTC+00:00)

Explorer 7 - Pass Details

Date: 25 October 2021
Orbit: 483 x 675 km, 50.3° (Epoch: 27 November)

Event Time Altitude Azimuth Distance (km) Brightness Sun altitude
Rises 20:55:17 0° 248° (WSW) 2,664 - -46.3°
Reaches altitude 10° 20:57:27 10° 246° (WSW) 1,805 - -46.5°
Maximum altitude 21:01:32 71° 162° (SSE) 602 - -46.9°
Drops below altitude 10° 21:05:56 10° 79° (E) 1,932 - -47.4°
Sets 21:08:18 0° 78° (ENE) 2,870 - -47.6°
